sat.trackr.live / text

‹ back to catalog

KOYO

NORAD 69916 · 2026-156AZ

PAYLOAD ACTIVE UNKNOWN

§ Identity

Operator
Country
ROC
Launch date
2026-07-07
Launch site
AFWTR
Launch vehicle
Mass (kg)
RCS (m²)

External: N2YO · Heavens-Above · Gunter

§ Orbital elements

Epoch: 2026-09-20T00:53:35.329344Z

Period
96.57 min
Inclination
97.7433°
Eccentricity
0.0001350
Mean motion
14.91116768 rev/d
Perigee alt
593.5 km
Apogee alt
595.4 km
Semi-major
6,972.6 km
B*
1.5401e-4
RAAN
162.1313°
Arg perigee
227.9556°
Mean anomaly
132.1548°
Rev number
1,113

§ Raw data

KOYO1 69916U 26156AZ  26263.03721446  .00001472  00000+0  15401-3 0  99942 69916  97.7433 162.1313 0001350 227.9556 132.1548 14.91116768 11132

JSON: /api/v1/satellites/69916 · /tle

For live sub-satellite position, see the globe view (requires WebGL).

§ Visibility from observer

Set your observer location to see the next 7 days of passes ≥ 10°. The values pass through the URL so the page stays shareable.

No JS? Fill the form by hand. The geolocation button needs JavaScript.